Regional Weather Roundup
Issued by NWS Cleveland, OH

Home | Current Version | Previous Version | Graphics & Text | Print | Product List | Glossary On
Versions: 1 2 3 4 5 6 7 8 9 10 11 12 13 14 15 16 17 18 19 20 21 22 23 24 25 26 27 28 29 30 31 32 33 34 35 36 37 38 39 40 41 42 43 44 45 46 47 48 49 50
000
ASUS41 KCLE 242200
RWRCLE
OHIO REGIONAL WEATHER ROUNDUP
NATIONAL WEATHER SERVICE WILMINGTON, OH
600 PM EDT FRI MAR 24 2017

NOTE: "FAIR" INDICATES FEW OR NO CLOUDS BELOW 12,000 FEET WITH NO
SIGNIFICANT WEATHER AND/OR OBSTRUCTIONS TO VISIBILITY.

OHZ001>008-015>018-024>027-034-035-043-044-242300-
   NORTHWEST OHIO

CITY           SKY/WX    TMP DP  RH WIND       PRES   REMARKS
DEFIANCE       FAIR      74  52  46 SW18G33   29.97S
FINDLAY        FAIR      75  53  46 SW24G30   30.00S
TOLEDO EXPRESS FAIR      75  53  46 SW21G33   29.96R
TOLEDO EXEC    FAIR      74  57  55 SW21G33   29.96S
LIMA           PTSUNNY   73  54  51 SW21G31   30.03S
$$

OHZ009>014-019>023-028>033-038-089-242300-
   NORTHEAST OHIO

CITY           SKY/WX    TMP DP  RH WIND       PRES   REMARKS
CLE-HOPKINS    FAIR      74  51  44 SW17G29   30.02S
CLE-LAKEFRONT  FAIR      74  51  44 SW23G31   29.97F
CUY CO. ARPT   SUNNY     73  54  49 W21G32    30.00S
LORAIN-ELYRIA  FAIR      71  53  52 SW22G28   30.00F
ASHTABULA      FAIR      72  50  45 SW17G24   29.99S
AKRON-CANTON   FAIR      72  51  47 SW18G25   30.04F
WOOSTER        NOT AVBL
MANSFIELD      FAIR      71  53  52 W16G25    30.05S
YOUNGSTOWN     FAIR      71  50  47 SW17G26   30.02F
$$

OHZ042-051>053-060>062-070>072-077>081-242300-
  SOUTHWEST OHIO

CITY           SKY/WX    TMP DP  RH WIND       PRES   REMARKS
CINC-COVINGTON CLOUDY    72  53  51 S12G23    30.10F
CINC-LUNKEN    PTSUNNY   74  55  51 SW13G21   30.10F
HAMILTON       FAIR      76  55  48 S8G21     30.09F
DAYTON         NOT AVBL
WRIGHT-PAT AFB NOT AVBL
DAYTON GENERAL FAIR      72  53  51 S14G26    30.07F
WILMINGTON     PTSUNNY   71  54  54 S16       30.09F
$$

OHZ036-037-039>041-045>050-054>059-063>069-073>076-082>088-242300-
  CENTRAL AND SOUTHEAST OHIO

CITY           SKY/WX    TMP DP  RH WIND       PRES   REMARKS
COLUMBUS       CLOUDY    73  53  49 SW15G30   30.08F
OSU AIRPORT    FAIR      72  55  55 S16       30.07F
BOLTON FIELD   SUNNY     72  55  56 SW21G28   30.09S
RICKENBACK AFB NOT AVBL
NEWARK         FAIR      72  52  49 SW18G29   30.07F
MARION         FAIR      73  51  46 SW25G33   30.05S
LANCASTER      FAIR      74  52  46 SW14      30.10F
ZANESVILLE     FAIR      74  50  42 W14G25    30.08F
NEW PHILLY     FAIR      74  53  48 SW12G22   30.07F
$$




USA.gov is the U.S. government's official web portal to all federal, state and local government web resources and services.